Location: Boleita
(10.4833°N, 66.8167°W)
Time: 02:15:46
(UTC+00:00)

CZ-4 R/B - Pass Details

Date: 08 November 2025
Orbit: 675 x 744 km, 98.7° (Epoch: 09 December)

Event Time Altitude Azimuth Distance (km) Brightness Sun altitude
Rises 08:58:05 0° 16° (NNE) 3,104 7.2 -20.3°
Reaches altitude 10° 09:00:22 10° 18° (NNE) 2,174 6.4 -19.8°
Maximum altitude 09:05:06 71° 102° (ESE) 736 4.0 -18.6°
Drops below altitude 10° 09:09:45 10° 186° (S) 2,133 6.4 -17.5°
Sets 09:11:59 0° 188° (S) 3,040 7.2 -17.0°
